Location: Arezzo
(43.4170°N, 11.8830°E)
Time: 17:30:21
(UTC+02:00)

ISS - Visible Passes

Search period start: 18 May 2021 00:00
Search period end: 28 May 2021 00:00
Orbit: 417 x 422 km, 51.6° (Epoch: 18 May)

Date Brightness Start Highest point End Pass type
(mag) Time Alt. Az. Time Alt. Az. Time Alt. Az.
18 May -1.4 01:20:13 10° NW 01:22:53 24° N 01:22:53 24° N visible
18 May -3.5 21:17:14 10° WSW 21:20:34 75° NNW 21:23:57 10° NE visible
18 May -1.2 22:55:01 10° WNW 22:57:48 23° NNW 23:00:35 10° NE visible
19 May -1.2 00:32:44 10° NW 00:35:24 21° N 00:36:27 18° NE visible
19 May -1.5 22:07:13 10° WNW 22:10:10 27° NNW 22:13:08 10° NE visible
19 May -1.1 23:45:10 10° NW 23:47:45 20° N 23:50:16 10° NE visible
20 May -1.2 01:22:01 10° NW 01:23:12 19° NW 01:23:12 19° NW visible
20 May -2.0 21:19:27 10° W 21:22:35 35° NNW 21:25:43 10° NE visible
20 May -1.0 22:57:31 10° NW 23:00:04 20° N 23:02:38 10° NE visible
21 May -1.7 00:34:36 10° NW 00:37:06 28° N 00:37:06 28° N visible
21 May -1.1 22:09:46 10° WNW 22:12:23 21° N 22:15:02 10° NE visible
21 May -1.6 23:47:10 10° NW 23:49:59 24° NNE 23:51:03 21° NE visible
22 May -0.8 01:23:47 10° WNW 01:23:59 11° WNW 01:23:59 11° WNW visible
22 May -1.3 21:21:57 10° WNW 21:24:44 23° NNW 21:27:30 10° NE visible
22 May -1.3 22:59:40 10° NW 23:02:20 21° N 23:05:00 10° ENE visible
23 May -1.6 00:36:20 10° NW 00:37:58 25° NW 00:37:58 25° NW visible
23 May -1.2 22:12:05 10° NW 22:14:39 20° N 22:17:14 10° NE visible
23 May -2.5 23:48:55 10° NW 23:51:59 38° NNE 23:51:59 38° NNE visible
24 May -1.2 21:24:25 10° NW 21:26:58 20° N 21:29:32 10° NE visible
24 May -2.0 23:01:30 10° NW 23:04:31 29° NNE 23:06:01 21° ENE visible
25 May -1.1 00:38:10 10° WNW 00:38:57 16° WNW 00:38:57 16° WNW visible
25 May -1.7 22:14:03 10° NW 22:16:53 24° NNE 22:19:42 10° ENE visible
25 May -2.6 23:50:40 10° WNW 23:53:00 42° NW 23:53:00 42° NW visible
26 May -1.5 21:26:33 10° NW 21:29:12 21° N 21:31:53 10° ENE visible
26 May -3.3 23:03:12 10° NW 23:06:32 56° NNE 23:07:05 48° ENE visible
27 May -2.6 22:15:46 10° NW 22:18:58 39° NNE 22:21:12 17° E visible
27 May -1.7 23:52:39 10° WNW 23:54:09 21° W 23:54:09 21° W visible
